• In Germany
  • List of Countries
  • For 7 days
  • Water Temperature
  • Satellite Maps
  • Weather Map
  • Weather Widgets
  • user-avatar
    Login

    Hourly Weather Eisenstadt

    Today, 24 September, Sunday

    Time Temperature Precipitation Wind Pressure Humidity
    00:00 +10°C° 0 mm 1 mps 725 mmHg 92%
    01:00 +10°C° 0 mm 1 mps 725 mmHg 92%
    02:00 +10°C° 0 mm 1 mps 725 mmHg 92%
    03:00 +10°C° 0 mm 1 mps 725 mmHg 92%
    04:00 +9°C° 0 mm 1 mps 725 mmHg 92%
    05:00 +10°C° 0 mm 1 mps 725 mmHg 91%
    06:00 +10°C° 0 mm 1 mps 725 mmHg 89%
    07:00 +11°C° 0 mm 1 mps 725 mmHg 87%
    08:00 +12°C° 0 mm 1 mps 725 mmHg 80%
    09:00 +14°C° 0 mm 1 mps 726 mmHg 73%
    10:00 +16°C° 0 mm 1 mps 726 mmHg 66%
    11:00 +16°C° 0.1 mm 1 mps 726 mmHg 65%
    12:00 +18°C° 0.1 mm 1 mps 726 mmHg 64%
    13:00 +18°C° 0.1 mm 1 mps 726 mmHg 63%
    14:00 +18°C° 0.2 mm 1 mps 725 mmHg 65%
    15:00 +18°C° 0.2 mm 1 mps 725 mmHg 66%
    16:00 +18°C° 0.2 mm 1 mps 725 mmHg 68%
    17:00 +15°C° 0.1 mm 1 mps 725 mmHg 73%
    18:00 +14°C° 0.1 mm 1 mps 725 mmHg 79%
    19:00 +11°C° 0.1 mm 0 mps 725 mmHg 84%
    20:00 +11°C° 0 mm 0 mps 725 mmHg 85%
    21:00 +11°C° 0 mm 0 mps 725 mmHg 87%
    22:00 +10°C° 0 mm 0 mps 726 mmHg 88%
    23:00 +10°C° 0 mm 0 mps 726 mmHg 89%

    Tomorrow, 25 September, Monday

    Time Temperature Precipitation Wind Pressure Humidity
    00:00 +10°C° 0 mm 0 mps 725 mmHg 90%
    01:00 +10°C° 0 mm 0 mps 725 mmHg 90%
    02:00 +9°C° 0 mm 0 mps 725 mmHg 91%
    03:00 +9°C° 0 mm 0 mps 725 mmHg 91%
    04:00 +9°C° 0 mm 0 mps 725 mmHg 92%
    05:00 +9°C° 0 mm 0 mps 725 mmHg 91%
    06:00 +10°C° 0 mm 0 mps 725 mmHg 90%
    07:00 +10°C° 0 mm 0 mps 726 mmHg 89%
    08:00 +12°C° 0 mm 1 mps 726 mmHg 86%
    09:00 +13°C° 0 mm 1 mps 726 mmHg 82%
    10:00 +14°C° 0 mm 1 mps 726 mmHg 78%
    11:00 +15°C° 0 mm 1 mps 726 mmHg 75%
    12:00 +16°C° 0 mm 2 mps 726 mmHg 72%
    13:00 +17°C° 0 mm 2 mps 726 mmHg 68%
    14:00 +17°C° 0 mm 2 mps 726 mmHg 68%
    15:00 +17°C° 0 mm 2 mps 726 mmHg 68%
    16:00 +17°C° 0 mm 2 mps 726 mmHg 68%
    17:00 +15°C° 0 mm 2 mps 726 mmHg 73%
    18:00 +14°C° 0 mm 2 mps 726 mmHg 77%
    19:00 +13°C° 0 mm 1 mps 726 mmHg 82%
    20:00 +13°C° 0 mm 1 mps 726 mmHg 83%
    21:00 +12°C° 0 mm 1 mps 727 mmHg 85%
    22:00 +12°C° 0 mm 1 mps 727 mmHg 86%
    23:00 +11°C° 0 mm 1 mps 727 mmHg 87%

    Day after tomorrow, 26 September, Tuesday

    Time Temperature Precipitation Wind Pressure Humidity
    00:00 +11°C° 0 mm 1 mps 727 mmHg 87%
    01:00 +11°C° 0 mm 1 mps 727 mmHg 87%
    02:00 +11°C° 0 mm 1 mps 726 mmHg 87%
    03:00 +10°C° 0 mm 1 mps 726 mmHg 88%
    04:00 +10°C° 0 mm 1 mps 726 mmHg 88%
    05:00 +11°C° 0 mm 1 mps 727 mmHg 87%
    06:00 +11°C° 0 mm 1 mps 727 mmHg 86%
    07:00 +12°C° 0 mm 1 mps 727 mmHg 84%
    08:00 +13°C° 0 mm 1 mps 727 mmHg 79%
    09:00 +15°C° 0 mm 1 mps 728 mmHg 73%
    10:00 +18°C° 0 mm 1 mps 728 mmHg 68%
    11:00 +17°C° 0.2 mm 2 mps 728 mmHg 66%
    12:00 +18°C° 0.2 mm 2 mps 728 mmHg 65%
    13:00 +19°C° 0.2 mm 2 mps 728 mmHg 64%
    14:00 +18°C° 0.2 mm 2 mps 727 mmHg 65%
    15:00 +18°C° 0.2 mm 2 mps 727 mmHg 66%
    16:00 +19°C° 0.2 mm 1 mps 727 mmHg 67%
    17:00 +18°C° 0 mm 1 mps 727 mmHg 72%
    18:00 +15°C° 0 mm 1 mps 727 mmHg 77%
    19:00 +13°C° 0 mm 1 mps 728 mmHg 82%
    20:00 +13°C° 0 mm 1 mps 728 mmHg 83%
    21:00 +13°C° 0 mm 1 mps 728 mmHg 83%
    22:00 +13°C° 0 mm 1 mps 728 mmHg 84%
    23:00 +12°C° 0 mm 1 mps 728 mmHg 85%

    27 September, Wednesday

    Time Temperature Precipitation Wind Pressure Humidity
    00:00 +12°C° 0 mm 1 mps 728 mmHg 85%
    01:00 +12°C° 0 mm 1 mps 728 mmHg 85%
    02:00 +12°C° 0 mm 1 mps 728 mmHg 86%
    03:00 +12°C° 0 mm 1 mps 728 mmHg 87%
    04:00 +11°C° 0 mm 1 mps 728 mmHg 87%
    05:00 +12°C° 0 mm 1 mps 728 mmHg 87%
    06:00 +12°C° 0 mm 1 mps 728 mmHg 86%
    07:00 +13°C° 0 mm 1 mps 729 mmHg 86%
    08:00 +14°C° 0 mm 1 mps 729 mmHg 80%
    09:00 +16°C° 0 mm 1 mps 729 mmHg 73%
    10:00 +19°C° 0 mm 1 mps 730 mmHg 67%
    11:00 +20°C° 0.2 mm 1 mps 729 mmHg 65%
    12:00 +20°C° 0.2 mm 2 mps 729 mmHg 62%
    13:00 +20°C° 0.2 mm 2 mps 729 mmHg 60%
    14:00 +20°C° 0.3 mm 2 mps 729 mmHg 62%
    15:00 +20°C° 0.3 mm 2 mps 729 mmHg 64%
    16:00 +19°C° 0.3 mm 2 mps 729 mmHg 67%
    17:00 +19°C° 0.1 mm 1 mps 729 mmHg 72%
    18:00 +16°C° 0.1 mm 1 mps 729 mmHg 77%
    19:00 +15°C° 0.1 mm 1 mps 729 mmHg 82%
    20:00 +14°C° 0 mm 1 mps 729 mmHg 83%
    21:00 +14°C° 0 mm 1 mps 729 mmHg 85%
    22:00 +13°C° 0 mm 1 mps 730 mmHg 86%
    23:00 +13°C° 0 mm 1 mps 730 mmHg 86%

    28 September, Thursday

    Time Temperature Precipitation Wind Pressure Humidity
    00:00 +13°C° 0 mm 1 mps 730 mmHg 87%
    01:00 +13°C° 0 mm 1 mps 730 mmHg 87%
    02:00 +12°C° 0 mm 1 mps 730 mmHg 88%
    03:00 +12°C° 0 mm 1 mps 730 mmHg 88%
    04:00 +12°C° 0 mm 1 mps 730 mmHg 88%
    05:00 +12°C° 0 mm 1 mps 730 mmHg 87%
    06:00 +12°C° 0 mm 1 mps 730 mmHg 85%
    07:00 +13°C° 0 mm 1 mps 730 mmHg 84%
    08:00 +14°C° 0 mm 1 mps 731 mmHg 76%
    09:00 +16°C° 0 mm 1 mps 731 mmHg 68%
    10:00 +19°C° 0 mm 1 mps 731 mmHg 61%
    11:00 +20°C° 0 mm 1 mps 731 mmHg 57%
    12:00 +21°C° 0 mm 1 mps 731 mmHg 52%
    13:00 +21°C° 0 mm 2 mps 731 mmHg 48%
    14:00 +21°C° 0 mm 1 mps 731 mmHg 50%
    15:00 +21°C° 0 mm 1 mps 730 mmHg 51%
    16:00 +21°C° 0 mm 1 mps 730 mmHg 53%
    17:00 +19°C° 0 mm 1 mps 730 mmHg 58%
    18:00 +16°C° 0 mm 1 mps 730 mmHg 62%
    19:00 +13°C° 0 mm 0 mps 731 mmHg 67%
    20:00 +14°C° 0 mm 1 mps 731 mmHg 68%
    21:00 +13°C° 0 mm 1 mps 731 mmHg 70%
    22:00 +13°C° 0 mm 1 mps 731 mmHg 71%
    23:00 +12°C° 0 mm 1 mps 731 mmHg 72%

    29 September, Friday

    Time Temperature Precipitation Wind Pressure Humidity
    00:00 +12°C° 0 mm 1 mps 731 mmHg 73%
    01:00 +12°C° 0 mm 1 mps 730 mmHg 74%
    02:00 +11°C° 0 mm 1 mps 730 mmHg 75%
    03:00 +11°C° 0 mm 1 mps 730 mmHg 77%
    04:00 +11°C° 0 mm 1 mps 730 mmHg 78%
    05:00 +11°C° 0 mm 1 mps 730 mmHg 77%
    06:00 +11°C° 0 mm 1 mps 730 mmHg 77%
    07:00 +11°C° 0 mm 0 mps 730 mmHg 77%
    08:00 +14°C° 0 mm 1 mps 730 mmHg 69%
    09:00 +16°C° 0 mm 1 mps 730 mmHg 62%
    10:00 +19°C° 0 mm 1 mps 730 mmHg 54%
    11:00 +19°C° 0 mm 2 mps 730 mmHg 52%
    12:00 +19°C° 0 mm 2 mps 730 mmHg 50%
    13:00 +20°C° 0 mm 2 mps 729 mmHg 47%
    14:00 +20°C° 0 mm 2 mps 729 mmHg 49%
    15:00 +20°C° 0 mm 2 mps 729 mmHg 51%
    16:00 +19°C° 0 mm 2 mps 728 mmHg 53%
    17:00 +17°C° 0 mm 2 mps 728 mmHg 59%
    18:00 +16°C° 0 mm 1 mps 728 mmHg 65%
    19:00 +14°C° 0 mm 1 mps 728 mmHg 71%
    20:00 +13°C° 0 mm 1 mps 728 mmHg 73%
    21:00 +13°C° 0 mm 1 mps 728 mmHg 74%
    22:00 +12°C° 0 mm 1 mps 728 mmHg 76%
    23:00 +12°C° 0 mm 2 mps 728 mmHg 77%
    Show more